Location: Contre
(49.7477°N, 2.0963°E)
Time: 00:02:37
(UTC+00:00)

Envisat - Pass Details

Date: 05 March 2024
Orbit: 762 x 764 km, 98.3° (Epoch: 12 April)

Event Time Altitude Azimuth Distance (km) Brightness Sun altitude
Rises 04:28:59 0° 7° (N) 3,242 6.5 -19.5°
Reaches altitude 10° 04:31:30 10° 357° (N) 2,312 5.6 -19.2°
Maximum altitude 04:35:56 31° 297° (WNW) 1,313 3.8 -18.5°
Enters shadow 04:36:31 31° 283° (WNW) 1,336 3.8 -18.4°
